GW3049 Weather Reports


time (UTC)temp
C
wind
direction
speed
KPH
gust
KPH
rain 1hr
cm
rain 24hr
cm
rain mn
cm
humidity
%
barometer
mb
20260506203705 11 0.0 0.0 0.00 0.00 0.00 98 1008.7
20260506203204 11 0.0 0.0 0.00 0.00 0.00 98 1008.7
20260506202706 11 0.0 0.0 0.00 0.00 0.00 98 1008.7
20260506202204 11 0.0 0.0 0.00 0.00 0.00 97 1008.5
20260506201707 11 0.0 0.0 0.00 0.00 0.00 97 1008.5
20260506201205 11 0.0 0.0 0.00 0.00 0.00 97 1008.5
20260506200705 11 0.0 0.0 0.00 0.00 0.00 97 1008.5
20260506200204 11 0.0 0.0 0.00 0.00 0.00 97 1008.5
20260506195704 11 0.0 0.0 0.00 0.00 0.00 97 1008.5
20260506195206 11 0.0 0.0 0.00 0.00 0.00 96 1008.0
20260506194204 11 0.0 0.0 0.00 0.00 0.00 96 1008.0
20260506193705 11 0.0 0.0 0.00 0.00 0.00 96 1008.0
20260506193205 11 0.0 0.0 0.00 0.00 0.00 96 1007.9
20260506192705 11 0.0 0.0 0.00 0.00 0.00 96 1007.9
20260506192204 12 0.0 0.0 0.00 0.00 0.00 97 1007.8
20260506191705 12 0.0 0.0 0.00 0.00 0.00 97 1007.8
20260506191205 12 0.0 0.0 0.00 0.00 0.00 97 1007.6
20260506190704 12 0.0 0.0 0.00 0.00 0.00 97 1007.6
20260506185705 12 0.0 0.0 0.00 0.00 0.00 98 1007.4
20260506185205 12 0.0 0.0 0.00 0.00 0.00 99 1007.3
20260506184705 12 0.0 0.0 0.00 0.00 0.00 99 1007.3
20260506184204 12 0.0 0.0 0.00 0.00 0.00 99 1007.1
20260506183705 12 0.0 0.0 0.00 0.00 0.00 99 1007.1
20260506183205 12 0.0 0.0 0.00 0.00 0.00 99 1007.0
20260506182704 12 0.0 0.0 0.00 0.00 0.00 99 1007.0
20260506182205 12 0.0 0.0 0.00 0.00 0.00 99 1006.9
20260506181705 12 0.0 0.0 0.00 0.00 0.00 99 1006.9
20260506181206 12 0.0 0.0 0.00 0.00 0.00 99 1006.9
20260506180705 12 0.0 0.0 0.00 0.00 0.00 99 1006.9
20260506180205 12 0.0 0.0 0.00 0.00 0.00 99 1006.8
20260506175704 12 0.0 0.0 0.00 0.00 0.00 99 1006.8
20260506175204 12 0.0 0.0 0.00 0.00 0.00 98 1006.7
20260506174705 12 0.0 0.0 0.00 0.00 0.00 98 1006.7
20260506174206 12 0.0 0.0 0.00 0.00 0.00 98 1006.7
20260506173704 12 0.0 0.0 0.00 0.00 0.00 98 1006.7
20260506173205 12 0.0 0.0 0.00 0.00 0.00 98 1006.6
20260506172204 12 0.0 0.0 0.00 0.00 0.00 98 1006.6
20260506171706 12 0.0 0.0 0.00 0.00 0.00 98 1006.6
20260506171204 12 0.0 0.0 0.00 0.00 0.00 98 1006.6
20260506170206 12 0.0 0.0 0.00 0.00 0.00 98 1006.6
20260506165704 12 0.0 0.0 0.00 0.00 0.00 98 1006.6
20260506165205 12 0.0 0.0 0.00 0.00 0.00 98 1006.6
20260506164705 12 0.0 0.0 0.00 0.00 0.00 98 1006.6
20260506164204 12 0.0 0.0 0.00 0.00 0.00 98 1006.6
20260506163707 12 0.0 0.0 0.00 0.00 0.00 98 1006.6
20260506163205 12 0.0 0.0 0.00 0.00 0.00 98 1006.6
20260506162704 12 0.0 0.0 0.00 0.00 0.00 98 1006.6
20260506161208 12 0.0 0.0 0.00 0.00 0.00 98 1006.6
20260506160705 12 0.0 0.0 0.00 0.00 0.00 98 1006.6
20260506160204 12 0.0 0.0 0.00 0.00 0.00 98 1006.5
20260506155705 12 0.0 0.0 0.00 0.00 0.00 98 1006.5
20260506154704 12 0.0 0.0 0.00 0.00 0.00 98 1006.2
20260506154205 12 0.0 0.0 0.00 0.00 0.00 98 1006.2
20260506153705 12 0.0 0.0 0.00 0.00 0.00 98 1006.2
20260506153206 12 0.0 0.0 0.00 0.00 0.00 98 1006.2
20260506152705 12 0.0 0.0 0.00 0.00 0.00 98 1006.2
20260506152205 12 0.0 0.0 0.00 0.00 0.00 97 1006.2
20260506151705 12 0.0 0.0 0.00 0.00 0.00 97 1006.2
20260506150706 12 0.0 0.0 0.00 0.00 0.00 97 1006.2
20260506150205 12 0.0 0.0 0.00 0.00 0.00 97 1006.2
20260506145704 12 0.0 0.0 0.00 0.00 0.00 97 1006.2
20260506145207 12 0.0 0.0 0.00 0.00 0.00 95 1006.3
20260506144705 12 0.0 0.0 0.00 0.00 0.00 95 1006.3
20260506144206 12 0.0 0.0 0.00 0.00 0.00 93 1006.5
20260506143204 13 0.0 0.0 0.00 0.00 0.00 88 1006.4
20260506142705 13 0.0 0.0 0.00 0.00 0.00 88 1006.4
20260506142205 13 0.0 0.0 0.00 0.00 0.00 88 1006.4
20260506141705 13 0.0 0.0 0.00 0.00 0.00 88 1006.4
20260506141205 14 0.0 0.0 0.00 0.00 0.00 84 1005.8
20260506140706 14 0.0 0.0 0.00 0.00 0.00 84 1005.8
20260506140205 15 0.0 0.0 0.00 0.00 0.00 83 1005.4
20260506135704 15 0.0 0.0 0.00 0.00 0.00 83 1005.4
20260506135204 16 0.0 0.0 0.00 0.00 0.00 80 1005.2
20260506134705 16 0.0 0.0 0.00 0.00 0.00 80 1005.2
20260506134206 16 0.0 0.0 0.00 0.00 0.00 78 1005.0
20260506133206 17 0.0 0.0 0.00 0.00 0.00 73 1004.7
20260506132705 17 0.0 0.0 0.00 0.00 0.00 73 1004.7
20260506131704 17 0.0 0.0 0.00 0.00 0.00 73 1004.7
20260506131204 17 0.0 0.0 0.00 0.00 0.00 75 1004.6
20260506130707 17 0.0 0.0 0.00 0.00 0.00 75 1004.6
20260506130205 17 0.0 0.0 0.00 0.00 0.00 73 1004.4
20260506125705 17 0.0 0.0 0.00 0.00 0.00 73 1004.4
20260506125204 17 0.0 0.0 0.00 0.00 0.00 65 1004.4
20260506124705 17 0.0 0.0 0.00 0.00 0.00 65 1004.4
20260506124205 17 0.0 0.0 0.00 0.00 0.00 62 1004.5
20260506123705 17 0.0 0.0 0.00 0.00 0.00 62 1004.5
20260506123206 17 0.0 0.0 0.00 0.00 0.00 62 1004.5
20260506122204 17 0.0 0.0 0.00 0.00 0.00 62 1004.5
20260506121705 17 0.0 0.0 0.00 0.00 0.00 62 1004.5
20260506121205 17 0.0 0.0 0.00 0.00 0.00 63 1004.6
20260506120707 17 0.0 0.0 0.00 0.00 0.00 63 1004.6
20260506120204 17 0.0 0.0 0.00 0.00 0.00 65 1004.7
20260506115704 17 0.0 0.0 0.00 0.00 0.00 65 1004.7
20260506115205 17 0.0 0.0 0.00 0.00 0.00 65 1004.7
20260506114704 17 0.0 0.0 0.00 0.00 0.00 65 1004.7
20260506114205 17 0.0 0.0 0.00 0.00 0.00 64 1004.7
20260506113704 17 0.0 0.0 0.00 0.00 0.00 64 1004.7
20260506113205 17 0.0 0.0 0.00 0.00 0.00 65 1004.9
20260506112704 17 0.0 0.0 0.00 0.00 0.00 65 1004.9
20260506111705 17 0.0 0.0 0.00 0.00 0.00 65 1004.9
20260506111206 17 0.0 0.0 0.00 0.00 0.00 63 1005.1
20260506110704 17 0.0 0.0 0.00 0.00 0.00 63 1005.1
20260506110207 17 0.0 0.0 0.00 0.00 0.00 63 1005.1
20260506105704 17 0.0 0.0 0.00 0.00 0.00 63 1005.1
20260506105204 17 0.0 0.0 0.00 0.00 0.00 63 1005.3
20260506104705 17 0.0 0.0 0.00 0.00 0.00 63 1005.3
20260506103704 17 0.0 0.0 0.00 0.00 0.00 63 1005.3
20260506103205 17 0.0 0.0 0.00 0.00 0.00 67 1005.4
20260506102704 17 0.0 0.0 0.00 0.00 0.00 67 1005.4
20260506102206 17 0.0 0.0 0.00 0.00 0.00 69 1005.4
20260506101705 17 0.0 0.0 0.00 0.00 0.00 69 1005.4
20260506101205 17 0.0 0.0 0.00 0.00 0.00 71 1005.4
20260506100705 17 0.0 0.0 0.00 0.00 0.00 71 1005.4
20260506095706 17 0.0 0.0 0.00 0.00 0.00 74 1005.5
20260506095204 16 0.0 0.0 0.00 0.00 0.00 72 1005.6
20260506094205 16 0.0 0.0 0.00 0.00 0.00 75 1005.6
20260506093704 16 0.0 0.0 0.00 0.00 0.00 75 1005.6
20260506092706 16 0.0 0.0 0.00 0.00 0.00 77 1005.6
20260506091705 16 0.0 0.0 0.00 0.00 0.00 77 1005.4
20260506091204 16 0.0 0.0 0.00 0.00 0.00 77 1005.5
20260506090705 16 0.0 0.0 0.00 0.00 0.00 77 1005.5
20260506090206 16 0.0 0.0 0.00 0.00 0.00 78 1005.7
20260506085205 16 0.0 0.0 0.00 0.00 0.00 77 1005.7
20260506084706 16 0.0 0.0 0.00 0.00 0.00 77 1005.7
20260506084204 16 0.0 0.0 0.00 0.00 0.00 80 1005.6
20260506083705 16 0.0 0.0 0.00 0.00 0.00 80 1005.6
20260506083205 15 0.0 0.0 0.00 0.00 0.00 83 1005.8
20260506082705 15 0.0 0.0 0.00 0.00 0.00 83 1005.8
20260506082206 14 0.0 0.0 0.00 0.00 0.00 88 1006.0
20260506081704 14 0.0 0.0 0.00 0.00 0.00 88 1006.0
20260506081206 14 0.0 0.0 0.00 0.00 0.00 89 1006.0
20260506080705 14 0.0 0.0 0.00 0.00 0.00 89 1006.0
20260506080204 13 0.0 0.0 0.00 0.00 0.00 93 1006.0
20260506073204 12 0.0 0.0 0.00 0.00 0.00 100 1006.0
20260506072705 12 0.0 0.0 0.00 0.00 0.00 100 1006.0
20260506071705 11 0.0 0.0 0.00 0.00 0.00 100 1006.0
20260506071205 11 0.0 0.0 0.00 0.00 0.00 100 1006.0
20260506070704 11 0.0 0.0 0.00 0.00 0.00 100 1006.0
20260506070207 11 0.0 0.0 0.00 0.00 0.00 100 1006.0
20260506062204 10 0.0 0.0 0.00 0.00 0.00 100 1006.3
20260506061705 10 0.0 0.0 0.00 0.00 0.00 100 1006.3
20260506061205 10 0.0 0.0 0.00 0.00 0.00 100 1006.3
20260506060705 10 0.0 0.0 0.00 0.00 0.00 100 1006.3
20260506060206 10 0.0 0.0 0.00 0.00 0.00 100 1006.3
20260506051205 8 0.0 0.0 0.00 0.00 0.00 100 1006.6
20260506050705 8 0.0 0.0 0.00 0.00 0.00 100 1006.6
20260506050206 8 0.0 0.0 0.00 0.00 0.00 100 1006.6
20260506044706 8 0.0 0.0 0.00 0.00 0.00 100 1006.5
20260506044204 8 0.0 0.0 0.00 0.00 0.00 100 1006.5
20260506043705 8 0.0 0.0 0.00 0.00 0.00 100 1006.5
20260506043206 8 0.0 0.0 0.00 0.00 0.00 100 1006.5
20260506042704 8 0.0 0.0 0.00 0.00 0.00 100 1006.5
20260506042206 9 0.0 0.0 0.00 0.00 0.00 100 1006.7
20260506041705 9 0.0 0.0 0.00 0.00 0.00 100 1006.7
20260506041204 9 0.0 0.0 0.00 0.00 0.00 100 1006.7
20260506040205 9 0.0 0.0 0.00 0.00 0.00 100 1006.8
20260506035705 9 0.0 0.0 0.00 0.00 0.00 100 1006.8
20260506035205 9 0.0 0.0 0.00 0.00 0.00 100 1006.8
20260506034206 9 0.0 0.0 0.00 0.00 0.00 100 1006.7
20260506033204 9 0.0 0.0 0.00 0.00 0.00 100 1006.7
20260506032706 9 0.0 0.0 0.00 0.00 0.00 100 1006.7
20260506032204 9 0.0 0.0 0.00 0.00 0.00 100 1006.7
20260506031705 9 0.0 0.0 0.00 0.00 0.00 100 1006.7
20260506031205 9 0.0 0.0 0.00 0.00 0.00 100 1006.7
20260506030206 9 0.0 0.0 0.00 0.00 0.00 100 1006.7
20260506025705 9 0.0 0.0 0.00 0.00 0.00 100 1006.7
20260506025206 9 0.0 0.0 0.00 0.00 0.00 100 1006.9
20260506024704 9 0.0 0.0 0.00 0.00 0.00 100 1006.9
20260506024205 9 0.0 0.0 0.00 0.00 0.00 100 1007.1
20260506023706 9 0.0 0.0 0.00 0.00 0.00 100 1007.1
20260506023205 9 0.0 0.0 0.00 0.00 0.00 100 1007.2
20260506022204 9 0.0 0.0 0.00 0.00 0.00 100 1007.2
20260506021205 9 0.0 0.0 0.00 0.00 0.00 100 1007.3
20260506020705 9 0.0 0.0 0.00 0.00 0.00 100 1007.3
20260506020206 9 0.0 0.0 0.00 0.00 0.00 100 1007.3
20260506015705 9 0.0 0.0 0.00 0.00 0.00 100 1007.3
20260506015204 10 0.0 0.0 0.00 0.00 0.00 100 1007.2
20260506014705 10 0.0 0.0 0.00 0.00 0.00 100 1007.2
20260506014204 10 0.0 0.0 0.00 0.00 0.00 100 1007.2
20260506013705 10 0.0 0.0 0.00 0.00 0.00 100 1007.2
20260506012705 10 0.0 0.0 0.00 0.00 0.00 100 1007.1
20260506012207 10 0.0 0.0 0.00 0.00 0.00 100 1007.1
20260506011705 10 0.0 0.0 0.00 0.00 0.00 100 1007.1
20260506011205 10 0.0 0.0 0.00 0.00 0.00 100 1007.1
20260506010705 10 0.0 0.0 0.00 0.00 0.00 100 1007.1
20260506010205 10 0.0 0.0 0.00 0.00 0.00 100 1007.1
20260506005704 10 0.0 0.0 0.00 0.00 0.00 100 1007.1
20260506004705 10 0.0 0.0 0.00 0.00 0.00 100 1007.3
20260506004205 10 0.0 0.0 0.00 0.00 0.00 100 1007.3
20260506003706 10 0.0 0.0 0.00 0.00 0.00 100 1007.3
20260506003205 11 0.0 0.0 0.00 0.00 0.00 100 1007.4
20260506002704 11 0.0 0.0 0.00 0.00 0.00 100 1007.4
20260506001705 11 0.0 0.0 0.00 0.00 0.00 100 1007.7
20260506001207 11 0.0 0.0 0.00 0.00 0.00 100 1007.7
20260506000706 11 0.0 0.0 0.00 0.00 0.00 100 1007.7
20260505235705 11 0.0 0.0 0.00 0.00 0.00 100 1007.7
20260505235205 11 0.0 0.0 0.00 0.00 0.00 100 1007.8
20260505234705 11 0.0 0.0 0.00 0.00 0.00 100 1007.8
20260505233205 11 0.0 0.0 0.00 0.00 0.00 99 1007.7
20260505232704 11 0.0 0.0 0.00 0.00 0.00 99 1007.7
20260505232206 11 0.0 0.0 0.00 0.00 0.00 99 1007.7
20260505231705 11 0.0 0.0 0.00 0.00 0.00 99 1007.7
20260505231204 11 0.0 0.0 0.00 0.00 0.00 99 1007.8
20260505230705 11 0.0 0.0 0.00 0.00 0.00 99 1007.8
20260505230204 11 0.0 0.0 0.00 0.00 0.00 99 1007.8
20260505225705 11 0.0 0.0 0.00 0.00 0.00 99 1007.8
20260505225206 11 0.0 0.0 0.00 0.00 0.00 99 1007.7
20260505224705 11 0.0 0.0 0.00 0.00 0.00 99 1007.7
20260505224204 11 0.0 0.0 0.00 0.00 0.00 99 1007.6
20260505223707 11 0.0 0.0 0.00 0.00 0.00 99 1007.6
20260505223204 11 0.0 0.0 0.00 0.00 0.00 99 1007.5
20260505222706 11 0.0 0.0 0.00 0.00 0.00 99 1007.5
20260505222204 11 0.0 0.0 0.00 0.00 0.00 99 1007.5
20260505221705 11 0.0 0.0 0.00 0.00 0.00 99 1007.5
20260505221205 12 0.0 0.0 0.00 0.00 0.00 98 1007.7
20260505220706 12 0.0 0.0 0.00 0.00 0.00 98 1007.7
20260505215705 12 0.0 0.0 0.00 0.00 0.00 98 1007.7
20260505215207 12 0.0 0.0 0.00 0.00 0.00 98 1007.7
20260505214704 12 0.0 0.0 0.00 0.00 0.00 98 1007.7
20260505214206 12 0.0 0.0 0.00 0.00 0.00 97 1007.7
20260505213705 12 0.0 0.0 0.00 0.00 0.00 97 1007.7
20260505213204 12 0.0 0.0 0.00 0.00 0.00 98 1007.7
20260505212705 12 0.0 0.0 0.00 0.00 0.00 98 1007.7
20260505211704 12 0.0 0.0 0.00 0.00 0.00 97 1007.8
20260505211206 12 0.0 0.0 0.00 0.00 0.00 97 1007.7
20260505210205 12 0.0 0.0 0.00 0.00 0.00 96 1007.6
20260505205706 12 0.0 0.0 0.00 0.00 0.00 96 1007.6
20260505204705 13 0.0 0.0 0.00 0.00 0.00 94 1007.4